Latest Weather Observations for Mount Lofty

IDS60901

Issued at 5:31 pm CDT Saturday 31 January 2015 (issued every 10 minutes, with the page automatically refreshed every 10 minutes)

About weather observations | Map of Adelaide area stations | Latest observations for Adelaide area | Other Formats
Station Details ID: 023842 Name: MOUNT LOFTY Lat: -34.98 Lon: 138.71 Height: 685.0 m
Data from the previous 72 hours. | See also: Recent months at Mount Lofty
Date/Time
CDT
Tmp

°C
App
Tmp
°C
Dew
Point
°C
Rel
Hum
%
Delta-T

°C
Wind Press
QNH
hPa
Press
MSL
hPa
Rain
since
9 am
mm
Dir
 
Spd
km/h
Gust
km/h
Spd
kts
Gust
kts
31/05:30pm 14.7 12.9 9.3 70 2.9 SSE 9 22 5 12 - - 0.0
31/05:00pm 14.8 13.0 7.8 63 3.6 SE 7 19 4 10 - - 0.0
31/04:30pm 15.2 13.0 8.0 62 3.7 SSE 9 26 5 14 - - 0.0
31/04:00pm 16.3 14.6 8.5 60 4.1 SE 7 15 4 8 - - 0.0
31/03:30pm 14.9 12.9 8.8 67 3.2 SE 9 19 5 10 - - 0.0
31/03:00pm 15.7 13.8 8.9 64 3.6 SSE 9 17 5 9 - - 0.0
31/02:30pm 15.7 13.7 8.7 63 3.7 SSE 9 17 5 9 - - 0.0
31/02:00pm 16.8 14.7 8.2 57 4.5 SSE 9 20 5 11 - - 0.0
31/01:30pm 17.3 15.3 8.7 57 4.6 SSE 9 17 5 9 - - 0.0
31/01:00pm 15.7 13.1 7.7 59 4.1 SE 11 19 6 10 - - 0.0
31/12:30pm 15.6 13.9 8.4 62 3.8 SE 7 19 4 10 - - 0.0
31/12:00pm 15.9 13.8 8.4 61 3.9 SE 9 19 5 10 - - 0.0
31/11:30am 15.0 13.2 7.8 62 3.7 SE 7 19 4 10 - - 0.0
31/11:00am 15.7 12.9 8.7 63 3.7 ESE 13 24 7 13 - - 0.0
31/10:30am 14.3 11.2 7.4 63 3.5 ESE 13 24 7 13 - - 0.0
31/10:00am 13.1 10.2 8.0 71 2.6 ESE 13 33 7 18 - - 0.0
31/09:30am 11.7 7.9 7.4 75 2.2 ESE 17 28 9 15 - - 0.0
31/09:00am 11.8 8.2 8.5 80 1.7 ESE 17 33 9 18 - - 0.0
31/08:30am 11.1 7.5 8.5 84 1.3 ESE 17 28 9 15 - - 0.0
31/08:00am 9.9 6.4 8.7 92 0.6 ESE 17 32 9 17 - - 0.0
31/07:30am 9.0 5.1 8.6 97 0.2 ESE 19 32 10 17 - - 0.0
31/07:00am 8.8 4.8 8.4 97 0.2 ESE 19 35 10 19 - - 0.0
31/06:30am 8.8 4.8 8.4 97 0.2 ESE 19 33 10 18 - - 0.0
31/06:00am 8.8 4.8 8.4 97 0.2 ESE 19 32 10 17 - - 0.0
31/05:30am 8.8 5.2 8.4 97 0.2 ESE 17 33 9 18 - - 0.0
31/05:00am 8.4 4.7 7.8 96 0.3 ESE 17 28 9 15 - - 0.0
31/04:30am 8.1 3.9 7.3 95 0.4 ESE 19 30 10 16 - - 0.0
31/04:00am 8.3 3.9 7.4 94 0.4 ESE 20 32 11 17 - - 0.0
31/03:30am 8.5 4.3 7.6 94 0.4 ESE 19 33 10 18 - - 0.0
31/03:00am 9.1 5.1 8.3 95 0.4 ESE 19 30 10 16 - - 0.0
31/02:30am 9.6 6.2 9.0 96 0.3 ESE 17 28 9 15 - - 0.0
31/02:00am 10.2 6.5 9.6 96 0.3 ESE 19 33 10 18 - - 0.0
31/01:30am 10.4 7.2 9.8 96 0.3 ESE 17 32 9 17 - - 0.0
31/01:00am 10.3 7.0 9.7 96 0.3 ESE 17 30 9 16 - - 0.0
31/12:30am 10.3 6.7 9.7 96 0.3 ESE 19 33 10 18 - - 0.0
31/12:00am 10.3 7.0 9.5 95 0.4 ESE 17 28 9 15 - - 0.0
 
Date/Time
CDT
Tmp

°C
App
Tmp
°C
Dew
Point
°C
Rel
Hum
%
Delta-T

°C
Wind Press
QNH
hPa
Press
MSL
hPa
Rain
since
9 am
mm
Dir
 
Spd
km/h
Gust
km/h
Spd
kts
Gust
kts
30/11:30pm 10.2 6.9 9.4 95 0.4 ESE 17 28 9 15 - - 0.0
30/11:00pm 10.4 7.0 9.3 93 0.6 ESE 17 30 9 16 - - 0.0
30/10:30pm 10.6 7.6 9.4 92 0.6 ESE 15 30 8 16 - - 0.0
30/10:00pm 10.7 7.3 9.3 91 0.7 ESE 17 30 9 16 - - 0.0
30/09:30pm 10.6 7.5 9.0 90 0.8 ESE 15 28 8 15 - - 0.0
30/09:00pm 10.9 7.8 8.7 86 1.1 ESE 15 30 8 16 - - 0.0
30/08:30pm 11.7 8.0 7.8 77 2.0 ESE 17 26 9 14 - - 0.0
30/08:00pm 13.0 10.3 7.5 69 2.8 ESE 11 20 6 11 - - 0.0
30/07:30pm 14.2 11.1 7.3 63 3.5 ESE 13 24 7 13 - - 0.0
30/07:00pm 15.7 13.1 7.7 59 4.1 SE 11 19 6 10 - - 0.0
30/06:30pm 16.9 14.2 7.3 53 5.0 SE 11 19 6 10 - - 0.0
30/06:00pm 18.3 15.7 7.7 50 5.6 SE 11 22 6 12 - - 0.0
30/05:30pm 19.2 16.6 6.0 42 6.8 SE 9 19 5 10 - - 0.0
30/05:00pm 20.3 18.0 5.5 38 7.6 SE 7 17 4 9 - - 0.0
30/04:30pm 21.1 19.0 6.6 39 7.6 SSE 7 17 4 9 - - 0.0
30/04:00pm 20.7 18.6 6.6 40 7.4 SE 7 19 4 10 - - 0.0
30/03:30pm 20.8 18.7 6.7 40 7.4 SSE 7 15 4 8 - - 0.0
30/03:00pm 20.8 17.9 4.4 34 8.2 SE 9 22 5 12 - - 0.0
30/02:30pm 20.6 17.9 3.8 33 8.3 SE 7 20 4 11 - - 0.0
30/02:00pm 20.9 18.9 6.4 39 7.6 S 6 13 3 7 - - 0.0
30/01:30pm 20.3 17.7 5.9 39 7.4 SE 9 20 5 11 - - 0.0
30/01:00pm 20.5 18.1 5.3 37 7.8 SE 7 19 4 10 - - 0.0
30/12:30pm 19.3 16.7 6.1 42 6.8 ESE 9 19 5 10 - - 0.0
30/12:00pm 18.9 16.3 6.1 43 6.6 SE 9 19 5 10 - - 0.0
30/11:30am 17.9 15.1 7.0 49 5.6 ESE 11 24 6 13 - - 0.0
30/11:00am 18.1 16.0 8.1 52 5.3 ESE 9 17 5 9 - - 0.0
30/10:30am 16.7 13.9 8.7 59 4.3 ESE 13 24 7 13 - - 0.0
30/10:00am 15.2 12.0 8.4 64 3.6 ESE 15 28 8 15 - - 0.0
30/09:30am 13.8 10.0 7.6 66 3.2 ESE 17 28 9 15 - - 0.0
30/09:00am 13.3 10.3 7.7 69 2.9 ESE 13 24 7 13 - - 0.0
30/08:30am 12.1 8.6 7.2 72 2.5 ESE 15 22 8 12 - - 0.0
30/08:00am 10.7 7.2 7.0 78 1.8 ESE 15 22 8 12 - - 0.0
30/07:30am 10.2 6.5 6.4 77 1.8 ESE 15 24 8 13 - - 0.0
30/07:00am 9.6 6.2 6.0 78 1.7 ESE 13 20 7 11 - - 0.0
30/06:30am 9.6 6.2 6.1 79 1.7 ESE 13 20 7 11 - - 0.0
30/06:00am 9.7 5.9 5.9 77 1.8 ESE 15 20 8 11 - - 0.0
30/05:30am 9.9 6.2 6.1 77 1.8 ESE 15 24 8 13 - - 0.0
30/05:00am 10.3 6.6 6.1 75 2.0 E 15 26 8 14 - - 0.0
30/04:30am 10.7 7.0 6.3 74 2.1 ESE 15 24 8 13 - - 0.0
30/04:00am 11.2 7.7 7.1 76 2.0 ESE 15 26 8 14 - - 0.0
30/03:30am 11.3 8.3 7.8 79 1.8 E 13 24 7 13 - - 0.0
30/03:00am 11.9 8.8 8.9 82 1.6 ESE 15 24 8 13 - - 0.0
30/02:30am 12.2 9.3 9.6 84 1.4 ESE 15 24 8 13 - - 0.0
30/02:00am 12.4 10.2 10.8 90 0.9 ESE 13 22 7 12 - - 0.0
30/01:30am 12.6 11.0 11.5 93 0.6 ESE 11 22 6 12 - - 0.0
30/01:00am 12.5 10.6 11.7 95 0.4 ESE 13 22 7 12 - - 0.0
30/12:30am 12.6 10.4 12.0 96 0.3 ESE 15 28 8 15 - - 0.0
30/12:00am 12.6 9.9 11.8 95 0.4 ESE 17 30 9 16 - - 0.0
 
Date/Time
CDT
Tmp

°C
App
Tmp
°C
Dew
Point
°C
Rel
Hum
%
Delta-T

°C
Wind Press
QNH
hPa
Press
MSL
hPa
Rain
since
9 am
mm
Dir
 
Spd
km/h
Gust
km/h
Spd
kts
Gust
kts
29/11:30pm 12.6 9.9 11.8 95 0.4 ESE 17 33 9 18 - - 0.0
29/11:00pm 12.7 10.4 11.8 94 0.5 ESE 15 28 8 15 - - 0.0
29/10:30pm 12.7 10.3 11.4 92 0.7 ESE 15 26 8 14 - - 0.0
29/10:00pm 12.8 10.3 11.2 90 0.9 ESE 15 32 8 17 - - 0.0
29/09:30pm 13.0 10.1 11.1 88 1.0 ESE 17 28 9 15 - - 0.0
29/09:00pm 13.5 11.3 10.9 84 1.4 ESE 13 24 7 13 - - 0.0
29/08:30pm 14.5 11.8 10.5 77 2.2 ESE 15 28 8 15 - - 0.0
29/08:00pm 15.7 13.2 9.6 67 3.3 ESE 13 28 7 15 - - 0.0
29/07:30pm 16.9 15.1 9.3 61 4.1 SE 9 20 5 11 - - 0.0
29/07:00pm 18.1 15.8 8.9 55 5.0 ESE 11 22 6 12 - - 0.0
29/06:30pm 19.3 16.9 8.6 50 5.8 SE 11 24 6 13 - - 0.0
29/06:00pm 20.3 17.3 7.7 44 6.7 SE 13 22 7 12 - - 0.0
29/05:30pm 21.1 16.9 5.9 37 7.9 ESE 17 32 9 17 - - 0.0
29/05:00pm 22.3 19.0 4.8 32 8.9 SE 11 22 6 12 - - 0.0
29/04:30pm 22.6 18.7 3.2 28 9.6 ESE 13 20 7 11 - - 0.0
29/04:00pm 22.9 19.3 2.9 27 9.9 SE 11 22 6 12 - - 0.0
29/03:30pm 22.6 18.2 2.7 27 9.8 ESE 15 32 8 17 - - 0.0
29/03:00pm 23.2 19.2 2.7 26 10.1 ESE 13 30 7 16 - - 0.0
29/02:30pm 21.8 17.5 0.9 25 9.9 ESE 13 26 7 14 - - 0.0
29/02:00pm 21.9 17.6 3.1 29 9.3 ESE 15 30 8 16 - - 0.0
29/01:30pm 21.3 17.0 3.5 31 8.8 SE 15 30 8 16 - - 0.0
29/01:00pm 20.5 16.9 4.9 36 7.9 ESE 13 30 7 16 - - 0.0
29/12:30pm 20.1 16.7 5.7 39 7.4 ESE 13 26 7 14 - - 0.0
29/12:00pm 19.3 16.1 6.8 44 6.5 ESE 13 24 7 13 - - 0.0
29/11:30am 18.5 15.1 7.6 49 5.7 ESE 15 26 8 14 - - 0.0
29/11:00am 17.4 14.3 7.2 51 5.3 ESE 13 26 7 14 - - 0.0
29/10:30am 16.9 13.8 7.3 53 5.0 ESE 13 26 7 14 - - 0.0
29/10:00am 15.7 12.3 7.7 59 4.1 E 15 24 8 13 - - 0.0
29/09:30am 15.1 12.7 8.6 65 3.4 E 11 24 6 13 - - 0.0
29/09:00am 13.5 10.1 7.5 67 3.1 E 15 26 8 14 - - 0.0
29/08:30am 12.4 8.9 7.1 70 2.7 ESE 15 28 8 15 - - 0.0
29/08:00am 11.3 7.3 6.8 74 2.2 ESE 17 26 9 14 - - 0.0
29/07:30am 10.5 6.8 6.5 76 2.0 ESE 15 24 8 13 - - 0.0
29/07:00am 10.1 6.5 6.6 79 1.7 ESE 15 24 8 13 - - 0.0
29/06:30am 10.3 6.7 6.6 78 1.8 ESE 15 24 8 13 - - 0.0
29/06:00am 10.4 7.1 6.5 77 1.9 ESE 13 20 7 11 - - 0.0
29/05:30am 10.6 7.7 6.7 77 1.9 ESE 11 17 6 9 - - 0.0
29/05:00am 10.8 8.0 6.9 77 1.9 E 11 19 6 10 - - 0.0
29/04:30am 11.4 8.3 7.3 76 2.0 ESE 13 26 7 14 - - 0.0
29/04:00am 11.9 8.1 7.6 75 2.2 ESE 17 26 9 14 - - 0.0
29/03:30am 12.0 8.9 8.7 80 1.7 ESE 15 24 8 13 - - 0.0
29/03:00am 12.2 9.7 9.6 84 1.4 ESE 13 22 7 12 - - 0.0
29/02:30am 11.9 9.6 10.6 92 0.7 ESE 13 22 7 12 - - 0.0
29/02:00am 12.1 10.0 11.3 95 0.4 ESE 13 24 7 13 - - 0.0
29/01:30am 12.6 10.8 12.1 97 0.3 ESE 13 24 7 13 - - 0.0
29/01:00am 12.9 10.8 12.4 97 0.3 ESE 15 30 8 16 - - 0.0
29/12:30am 13.1 11.1 12.6 97 0.3 ESE 15 30 8 16 - - 0.0
29/12:00am 13.0 10.6 12.5 97 0.3 ESE 17 32 9 17 - - 0.0
 
Date/Time
CDT
Tmp

°C
App
Tmp
°C
Dew
Point
°C
Rel
Hum
%
Delta-T

°C
Wind Press
QNH
hPa
Press
MSL
hPa
Rain
since
9 am
mm
Dir
 
Spd
km/h
Gust
km/h
Spd
kts
Gust
kts
28/11:30pm 12.8 10.7 12.3 97 0.3 ESE 15 32 8 17 - - 0.0
28/11:00pm 12.8 11.1 12.3 97 0.3 ESE 13 30 7 16 - - 0.0
28/10:30pm 12.7 10.9 12.2 97 0.3 ESE 13 24 7 13 - - 0.0
28/10:00pm 12.6 11.1 12.0 96 0.3 SE 11 26 6 14 - - 0.0
28/09:30pm 12.4 10.8 11.6 95 0.4 SE 11 24 6 13 - - 0.0
28/09:00pm 12.3 10.7 11.4 94 0.5 ESE 11 30 6 16 - - 0.0
28/08:30pm 12.7 10.9 10.9 89 1.0 SE 11 24 6 13 - - 0.0
28/08:00pm 13.7 12.2 10.5 81 1.7 SE 9 19 5 10 - - 0.0
28/07:30pm 14.9 13.4 10.5 75 2.4 ESE 9 15 5 8 - - 0.0
28/07:00pm 15.7 13.9 9.6 67 3.3 SE 9 15 5 8 - - 0.0
28/06:30pm 16.4 14.3 9.8 65 3.6 SE 11 26 6 14 - - 0.0
28/06:00pm 16.8 13.8 9.2 61 4.1 SE 15 28 8 15 - - 0.0

Latest Capital City Observations: Canberra | Sydney | Melbourne | Brisbane | Adelaide | Perth | Hobart | Darwin

Other Formats:

Comma delimited format used in spreadsheet applications
http://www.bom.gov.au/fwo/IDS60901/IDS60901.95678.axf

JavaScript Object Notation format (JSON) in row-major order
http://www.bom.gov.au/fwo/IDS60901/IDS60901.95678.json